Wind_Speed
14 14 14 14 15 15 13 12 11 10 11 13 12 12 11 11 12 13 14 15 15 15 15 15 15 16 17 17 17 18 18 19 20 21 22 22 23 25 26 26 27 27 27 28
14 14 14 15 15 14 12 11 11 11 12 13 13 14 14 15 16 16 15 14 13 13 14 14 15 15 16 17 18 19 19 20 21 22 22 23 24 25 26 27 27 28 29 29
14 14 15 15 14 13 12 11 10 11 11 13 15 16 16 16 17 18 15 13 12 13 13 14 14 15 17 18 19 20 20 21 22 22 23 24 25 25 26 27 27 28 29 29
14 14 15 15 15 14 13 13 11 11 12 13 15 15 15 15 17 17 16 14 12 13 14 14 15 17 18 18 19 20 21 22 22 23 23 24 25 26 26 27 27 27 28 29
12 12 14 15 14 14 14 15 15 15 15 15 16 17 17 18 19 19 19 17 14 13 14 14 15 17 17 18 19 20 21 22 23 24 24 25 26 26 26 27 27 27 28 28
12 12 12 13 14 15 15 15 16 17 18 18 17 20 19 19 20 20 19 16 14 14 14 15 16 17 18 20 20 21 22 23 24 25 25 26 27 27 28 28 27 27 27 27
11 11 11 11 13 13 14 15 16 17 18 17 17 20 19 19 19 18 16 16 16 15 14 15 16 17 18 20 21 22 23 23 25 25 26 27 27 27 28 28 27 27 27 26
10 11 11 12 12 12 13 14 14 15 16 15 16 17 16 16 16 15 16 16 16 15 15 16 16 18 18 20 21 22 24 25 25 26 27 27 27 27 27 27 27 27 27 27
9 9 11 12 13 13 12 13 13 15 15 15 16 16 15 14 15 16 16 16 16 15 15 16 17 19 19 21 22 23 24 25 26 26 26 27 27 27 28 28 28 28 28 28
9 10 11 13 13 13 12 12 14 14 15 16 15 15 15 15 14 14 15 15 16 16 15 16 18 19 21 22 22 23 24 25 26 26 26 27 27 28 28 28 28 28 28 27
8 10 11 12 13 13 13 13 14 15 16 16 16 15 15 16 15 15 16 17 17 17 17 18 19 20 22 23 23 23 24 25 26 26 26 27 28 28 28 28 27 27 27 26
9 10 11 13 13 14 14 15 15 16 17 17 18 17 16 16 17 17 17 18 19 19 19 19 20 22 22 23 24 24 25 26 26 26 27 27 27 26 26 26 26 26 26 26
11 12 12 13 14 15 15 15 16 16 17 18 19 19 17 17 18 19 20 20 21 21 21 22 22 22 23 24 25 25 25 26 26 26 26 26 26 25 25 25 25 25 25 25
12 13 14 14 13 14 15 15 16 16 17 17 18 18 17 18 20 21 21 21 21 21 21 21 22 23 23 25 25 25 26 26 26 26 26 25 25 25 24 24 24 23 23 24
12 13 13 14 14 14 15 15 16 17 17 18 18 18 18 18 20 21 21 21 20 21 21 22 23 24 24 25 25 25 26 26 26 26 25 25 24 24 23 22 22 22 22 23
12 13 12 12 13 14 16 16 16 16 16 17 18 18 18 19 20 20 21 21 21 22 22 22 23 23 24 25 25 26 26 26 25 25 24 23 22 21 21 20 20 20 20 21
11 12 12 12 12 13 14 13 14 15 16 16 17 17 18 19 19 19 20 22 22 21 20 21 22 23 24 25 25 25 25 24 23 22 21 20 20 19 18 18 18 18 18 19
11 11 12 11 12 13 12 13 13 13 14 15 17 18 19 19 19 19 20 21 21 21 20 21 22 23 23 23 23 22 22 21 21 20 19 18 18 17 16 16 16 16 16 17
9 9 9 10 10 10 9 10 11 12 14 15 16 17 17 18 18 19 20 20 20 20 20 20 20 20 21 20 19 19 18 18 18 17 16 16 15 15 14 14 14 15 15 14
7 7 8 9 9 8 7 7 8 10 12 13 14 14 15 16 17 17 18 19 18 19 19 19 18 18 17 17 17 16 16 16 15 14 14 14 13 13 12 12 13 13 13 12
5 6 6 7 8 8 8 8 9 10 12 12 13 14 15 16 16 16 17 17 17 17 17 17 17 16 16 15 15 15 14 14 13 13 13 12 12 11 11 11 10 10 9 8
5 5 6 6 8 8 8 9 10 11 11 11 12 13 14 15 15 15 15 15 14 14 15 15 15 15 14 14 13 13 13 12 12 12 11 11 10 10 9 9 8 8 6 5
4 5 6 6 7 7 8 9 9 9 10 9 10 11 12 12 13 13 13 13 13 14 14 14 15 14 13 12 11 11 11 11 10 10 10 9 9 8 8 7 7 6 5 5
4 5 6 6 6 8 9 9 9 8 9 9 9 10 11 11 11 12 12 12 12 12 13 13 12 12 11 10 10 10 10 9 9 9 9 9 8 8 8 8 7 7 7 7
4 5 6 6 6 6 7 8 8 8 7 8 8 9 10 10 10 11 11 11 11 11 11 11 10 10 10 10 9 9 9 9 9 9 9 9 9 10 10 10 10 10 10 10
5 6 7 7 7 7 7 7 7 7 6 7 8 8 9 9 9 9 10 10 10 10 10 10 9 10 10 10 10 9 9 9 9 9 10 10 11 11 12 12 12 12 12 12
Wind_Direction
180 178 177 177 184 188 190 199 212 222 234 246 256 261 260 264 270 273 273 275 279 283 284 281 280 283 284 287 290 290 289 289 289 288 286 283 281 280 279 278 278 276 275 276
174 171 174 181 187 190 193 208 217 225 232 244 258 263 258 265 272 273 271 274 280 280 283 284 284 285 286 287 289 289 289 289 289 288 286 285 285 283 281 279 278 278 276 276
175 178 183 187 191 195 202 211 219 226 233 245 255 259 263 272 276 274 273 277 279 282 282 285 286 286 287 286 287 288 288 287 288 288 287 286 286 285 283 281 279 278 276 276
180 184 187 190 196 202 208 212 222 233 242 253 261 263 268 272 277 277 278 279 278 279 281 287 287 286 288 286 287 288 289 287 287 287 287 286 286 285 283 282 281 279 278 278
186 188 194 195 199 208 209 213 226 237 242 249 260 267 271 277 282 287 288 282 276 278 280 285 287 290 290 289 289 289 291 290 289 289 288 288 287 286 284 283 282 281 280 278
191 187 190 197 203 208 212 217 226 234 240 249 261 271 273 279 286 288 289 282 277 277 280 285 287 290 292 294 293 293 293 292 291 290 290 289 288 287 286 285 283 281 281 280
189 190 194 202 207 210 216 222 228 235 243 253 260 270 273 282 287 288 287 283 278 278 279 286 292 291 293 296 295 295 295 294 294 292 291 290 289 288 286 284 283 282 281 281
191 194 202 211 214 212 216 226 234 244 251 251 258 271 274 284 287 283 285 288 289 291 290 290 294 295 295 296 297 297 296 296 295 293 292 291 290 288 286 285 284 282 282 281
208 205 205 211 214 217 223 233 245 255 258 257 260 266 270 281 286 291 292 294 291 292 294 295 296 297 297 297 297 297 297 296 296 293 292 291 291 289 287 285 284 284 283 281
229 227 221 217 223 226 232 239 247 256 263 261 262 269 280 289 297 303 299 295 298 298 299 300 297 298 299 298 299 299 298 297 297 296 294 293 291 289 288 286 284 283 283 282
234 234 228 227 228 233 239 249 252 256 262 267 274 279 287 292 297 300 303 304 308 304 298 298 298 299 299 300 301 301 300 299 298 296 295 294 293 291 289 287 286 284 283 283
250 244 239 236 236 238 245 251 254 255 260 269 277 282 287 292 298 301 301 302 302 303 298 296 301 304 302 301 301 302 302 301 299 297 296 296 294 292 290 288 287 285 285 285
254 251 249 243 240 242 249 256 256 260 264 268 274 279 286 292 298 301 303 303 301 304 303 300 301 304 303 303 302 302 302 302 301 299 297 295 294 293 290 289 288 287 286 285
255 253 254 251 248 245 250 253 253 259 263 268 275 278 285 293 297 301 303 302 302 303 304 303 304 304 304 304 304 303 303 303 301 299 298 296 294 293 291 289 289 288 287 286
253 256 255 253 251 253 254 250 249 257 262 269 275 279 285 293 298 300 302 304 304 307 306 305 305 305 304 304 306 305 305 304 302 300 299 296 294 292 291 289 289 288 287 287
254 256 255 252 249 252 256 258 256 260 264 270 276 281 287 294 298 299 300 304 306 308 306 305 305 305 304 305 307 307 306 305 304 302 300 298 297 295 293 290 289 288 287 287
256 253 251 250 251 252 258 262 265 267 270 275 278 284 289 293 299 297 302 306 307 309 309 308 307 308 307 307 308 307 307 306 305 303 302 299 298 296 295 292 290 290 290 289
256 253 250 253 252 253 263 270 272 273 274 276 280 284 290 294 299 300 303 307 308 309 310 310 310 310 309 309 309 309 310 309 308 305 304 302 300 298 296 294 293 293 294 294
253 252 253 256 256 261 266 274 275 275 278 283 287 293 296 298 300 302 304 305 308 311 312 313 312 312 312 312 312 314 315 315 313 310 308 307 304 303 299 297 296 296 296 296
247 252 259 260 262 271 273 279 279 281 287 292 294 299 304 307 304 304 307 310 313 315 316 318 318 317 318 318 318 319 319 319 318 317 317 314 310 311 309 306 303 301 300 299
255 260 263 264 268 271 277 283 286 292 296 297 300 303 307 312 313 312 312 315 317 319 320 323 323 323 323 323 323 322 323 324 324 324 323 320 317 318 317 317 318 315 312 310
278 281 279 277 272 272 283 291 295 296 299 300 304 309 312 314 317 319 317 320 323 324 324 327 328 328 328 329 329 329 329 329 330 332 331 331 331 333 334 334 337 337 338 337
295 293 295 288 280 279 290 292 296 301 304 311 313 313 316 320 323 324 325 327 328 329 329 330 331 333 335 337 339 338 339 340 342 344 346 349 352 354 356 359 1 3 7 16
315 303 295 296 294 287 286 292 296 307 309 311 313 316 321 326 328 329 332 335 336 335 337 339 341 342 344 346 351 353 355 358 2 7 10 15 17 20 23 28 31 38 46 52
325 317 312 311 313 302 300 302 302 307 309 309 314 320 323 328 333 338 343 346 346 347 350 352 356 1 3 3 3 6 10 15 22 28 32 36 40 46 51 53 56 58 60 63
325 321 313 313 318 315 311 309 309 309 309 311 319 325 327 332 339 345 350 356 0 3 6 9 12 15 16 17 19 22 25 32 40 47 52 56 59 61 63 63 64 65 66 67
Height
5827 5831 5833 5836 5838 5840 5841 5842 5844 5846 5847 5848 5849 5850 5851 5850 5851 5852 5852 5851 5851 5852 5852 5851 5850 5848 5847 5847 5846 5846 5845 5843 5843 5842 5841 5840 5839 5837 5836 5835 5834 5833 5833 5832
5827 5830 5832 5834 5836 5837 5839 5840 5841 5842 5844 5845 5846 5847 5848 5847 5847 5848 5848 5849 5848 5849 5848 5847 5846 5844 5843 5843 5842 5841 5840 5839 5838 5837 5836 5834 5833 5831 5830 5829 5828 5826 5826 5825
5825 5829 5830 5832 5834 5835 5837 5838 5839 5841 5842 5843 5844 5844 5844 5844 5843 5843 5845 5845 5845 5845 5845 5844 5842 5841 5840 5839 5838 5837 5835 5834 5832 5831 5830 5828 5827 5825 5824 5822 5821 5820 5819 5818
5823 5826 5828 5830 5832 5833 5835 5837 5838 5838 5840 5841 5842 5841 5842 5841 5841 5841 5841 5841 5841 5841 5840 5840 5839 5838 5837 5835 5834 5832 5830 5828 5827 5825 5824 5822 5820 5819 5817 5815 5814 5813 5812 5810
5822 5824 5826 5828 5830 5831 5834 5835 5836 5837 5838 5839 5839 5839 5840 5838 5838 5838 5838 5837 5836 5836 5836 5835 5835 5834 5832 5831 5829 5827 5825 5823 5821 5819 5817 5815 5814 5812 5810 5808 5807 5805 5804 5803
5821 5822 5824 5826 5828 5830 5831 5833 5834 5834 5835 5836 5836 5836 5836 5835 5835 5834 5833 5832 5832 5831 5831 5831 5830 5829 5827 5825 5823 5821 5819 5817 5815 5813 5811 5809 5807 5805 5803 5801 5799 5798 5796 5795
5820 5821 5823 5824 5826 5828 5830 5831 5832 5832 5833 5833 5833 5832 5833 5832 5831 5830 5829 5829 5828 5827 5827 5826 5825 5823 5821 5820 5818 5815 5813 5810 5808 5806 5804 5802 5799 5797 5795 5794 5792 5791 5789 5788
5819 5821 5822 5823 5824 5825 5826 5828 5830 5830 5830 5830 5830 5828 5829 5828 5827 5825 5825 5825 5824 5823 5822 5821 5820 5819 5816 5814 5812 5809 5806 5804 5801 5799 5797 5794 5792 5790 5788 5786 5785 5783 5782 5780
5817 5819 5820 5821 5822 5823 5824 5825 5826 5827 5826 5826 5826 5825 5825 5824 5823 5822 5821 5820 5820 5819 5817 5816 5815 5813 5811 5808 5806 5803 5800 5797 5794 5792 5789 5787 5785 5783 5781 5779 5777 5776 5774 5773
5816 5817 5818 5819 5820 5821 5822 5823 5823 5823 5823 5822 5822 5822 5822 5821 5820 5819 5817 5816 5815 5814 5812 5811 5809 5808 5805 5802 5799 5796 5793 5790 5788 5785 5782 5779 5777 5775 5773 5771 5770 5768 5766 5765
5814 5815 5816 5817 5818 5818 5819 5820 5819 5820 5819 5819 5818 5821 5819 5817 5816 5815 5813 5812 5810 5809 5807 5806 5804 5802 5799 5796 5793 5789 5787 5784 5781 5778 5775 5772 5770 5768 5765 5764 5762 5760 5758 5757
5811 5812 5813 5814 5815 5816 5816 5816 5816 5817 5816 5816 5815 5818 5815 5813 5812 5811 5809 5807 5806 5804 5802 5800 5798 5795 5792 5789 5786 5783 5779 5777 5774 5771 5768 5765 5762 5760 5758 5756 5754 5752 5751 5750
5808 5809 5810 5811 5814 5813 5812 5812 5812 5812 5812 5812 5811 5814 5810 5809 5808 5806 5805 5803 5801 5799 5796 5794 5792 5789 5786 5783 5779 5776 5773 5769 5766 5763 5760 5758 5755 5752 5750 5749 5747 5745 5744 5742
5805 5805 5806 5807 5808 5808 5808 5809 5808 5808 5808 5808 5807 5807 5806 5805 5803 5802 5800 5798 5796 5793 5790 5788 5785 5782 5779 5776 5772 5769 5766 5762 5759 5756 5753 5751 5748 5745 5743 5742 5740 5738 5737 5736
5801 5801 5801 5802 5803 5803 5804 5804 5804 5804 5804 5804 5804 5802 5802 5800 5798 5797 5794 5792 5789 5787 5784 5782 5779 5776 5773 5770 5766 5763 5759 5756 5752 5749 5746 5743 5741 5739 5737 5735 5733 5731 5730 5729
5797 5797 5797 5798 5799 5799 5800 5800 5801 5801 5800 5800 5799 5798 5797 5795 5793 5791 5789 5787 5785 5782 5779 5776 5773 5770 5767 5764 5760 5756 5753 5749 5746 5742 5739 5737 5734 5732 5730 5728 5727 5725 5724 5723
5793 5793 5794 5794 5795 5796 5796 5797 5797 5797 5796 5795 5794 5794 5792 5790 5788 5786 5784 5782 5780 5777 5774 5771 5768 5765 5761 5758 5754 5750 5746 5743 5739 5736 5733 5731 5729 5726 5724 5723 5721 5720 5718 5717
5789 5789 5790 5791 5793 5792 5795 5793 5793 5792 5792 5791 5790 5789 5788 5786 5784 5782 5780 5777 5774 5771 5768 5765 5762 5759 5755 5752 5748 5744 5741 5737 5734 5731 5728 5726 5724 5722 5720 5718 5716 5715 5713 5712
5785 5786 5787 5788 5788 5789 5790 5790 5789 5789 5789 5788 5787 5785 5783 5782 5780 5777 5775 5772 5770 5767 5764 5760 5757 5754 5750 5746 5743 5740 5736 5733 5730 5727 5724 5722 5720 5717 5715 5713 5712 5710 5709 5707
5783 5784 5785 5785 5786 5786 5787 5787 5786 5787 5785 5784 5783 5781 5780 5778 5776 5774 5771 5768 5765 5762 5759 5756 5752 5749 5746 5742 5739 5736 5733 5730 5727 5724 5721 5719 5716 5714 5712 5710 5708 5706 5705 5704
5782 5782 5782 5783 5783 5783 5784 5783 5784 5784 5783 5781 5779 5778 5776 5774 5773 5770 5767 5764 5761 5758 5755 5752 5749 5745 5742 5739 5736 5733 5730 5727 5724 5721 5718 5716 5714 5711 5709 5707 5705 5704 5702 5701
5780 5780 5780 5780 5781 5783 5781 5781 5781 5780 5778 5777 5775 5774 5773 5771 5768 5766 5763 5760 5758 5755 5752 5749 5746 5742 5739 5736 5733 5730 5727 5725 5722 5719 5717 5714 5712 5709 5707 5705 5704 5702 5700 5699
5779 5779 5779 5779 5781 5780 5779 5778 5778 5777 5775 5774 5773 5771 5770 5768 5766 5763 5760 5758 5755 5752 5749 5746 5743 5740 5737 5734 5731 5728 5726 5723 5720 5718 5715 5713 5711 5708 5707 5705 5703 5701 5700 5698
5778 5777 5777 5777 5777 5777 5776 5776 5775 5774 5773 5772 5770 5769 5767 5765 5763 5761 5758 5755 5752 5750 5747 5744 5741 5738 5735 5732 5730 5727 5725 5722 5719 5717 5715 5713 5711 5709 5707 5705 5703 5702 5701 5699
5777 5776 5775 5775 5774 5774 5773 5772 5772 5771 5770 5769 5768 5766 5764 5762 5760 5758 5756 5753 5750 5748 5745 5742 5740 5737 5734 5732 5729 5727 5724 5722 5720 5718 5716 5714 5712 5710 5708 5707 5705 5704 5702 5701
5775 5775 5774 5773 5772 5771 5771 5770 5769 5768 5768 5767 5765 5764 5762 5760 5759 5756 5754 5752 5749 5747 5745 5742 5739 5737 5734 5732 5730 5727 5725 5723 5721 5719 5717 5716 5714 5713 5711 5710 5708 5707 5705 5704